Powrót do katalogu

KOREASAT 5A

AktywnyŁącznośćGEO
NORAD 42984·PAYLOAD·🇰🇷 South Korea

Wystrzelony Oct 30, 2017 z Cape Canaveral Space Force Station

Loading…

TLE

ŚwieżeSource: Space-Track

Epoka: Sep 14, 2026, 14:20 UTC

1 42984U 17067A   26257.59754778 -.00000366  00000-0  00000-0 0  9998
2 42984   0.0161 252.6644 0000874 295.8103 133.3721  1.00272061 32423

Śledź KOREASAT 5A w czasie rzeczywistym z AllMySat

Download on the App Store